SCP
0 0 0 0 0 0 0 0 0 0 0 0 0 0 0 0 0 0 0 0 0 0 0 0 0 0 0 0 0 0 0 0 0 0 0 0 0 0 0 0 0 0 0 0
0 0 0 0 0 0 0 0 0 0 1 0 0 0 0 0 0 0 0 0 0 0 0 0 0 0 0 0 0 0 0 0 0 0 0 0 0 0 0 0 0 0 0 0
0 0 0 0 0 0 0 0 0 0 0 0 0 0 0 0 0 0 0 0 0 0 0 0 0 0 0 0 0 0 0 0 0 0 0 0 0 0 0 0 0 0 0 0
0 0 0 0 -0 -0 0 0 0 0 0 0 0 0 0 0 0 0 0 0 0 0 0 0 0 0 0 0 0 0 0 0 0 0 0 0 0 0 0 0 0 0 0 0
0 0 0 0 0 0 0 0 0 0 0 0 0 0 0 0 0 0 0 0 0 0 0 0 0 0 0 0 0 0 0 0 0 0 0 0 0 -0 0 0 0 0 0 0
0 0 0 0 0 0 0 0 0 0 0 0 0 0 0 0 0 0 0 0 0 0 0 0 0 0 0 0 0 0 0 0 0 0 0 0 0 0 0 0 0 0 0 0
0 0 0 0 0 0 0 0 0 0 0 0 0 0 0 0 0 0 0 0 0 0 0 0 0 0 0 0 0 0 0 0 0 0 0 0 0 0 0 0 0 0 0 0
0 0 0 0 0 0 0 0 0 0 0 0 0 0 0 0 0 0 0 0 0 0 0 0 0 0 0 0 0 0 0 0 0 0 0 0 0 0 0 0 0 0 0 0
0 0 0 0 0 0 0 0 0 0 0 0 0 0 0 0 0 0 0 0 0 0 0 0 0 0 0 0 0 0 0 0 0 0 0 0 0 0 0 0 0 0 0 0
0 0 0 0 0 0 0 0 0 0 0 0 0 0 0 0 0 0 0 0 0 0 0 0 0 0 0 0 0 0 0 0 0 0 0 0 0 0 0 0 0 0 0 0
0 0 0 0 0 0 0 0 0 0 0 0 0 0 0 0 0 0 0 0 0 0 0 0 0 0 0 0 0 0 0 0 0 0 0 0 0 0 0 0 0 0 0 0
0 0 0 0 0 0 0 -0 0 0 0 0 0 0 0 0 0 0 0 0 0 0 0 0 0 0 0 0 0 0 0 0 0 0 0 0 0 0 0 0 0 0 0 0
0 0 0 0 0 0 0 0 0 0 0 0 0 0 0 0 0 0 0 0 0 0 0 0 0 0 0 0 0 0 0 0 0 0 0 0 0 0 0 0 0 0 0 0
0 0 0 0 0 0 0 0 0 0 0 0 0 0 0 0 0 0 0 0 0 0 0 0 0 0 0 0 0 0 0 0 0 0 0 0 0 0 0 0 0 0 0 0
0 0 0 0 0 0 0 0 0 0 0 0 0 0 0 0 0 0 0 0 0 0 0 0 0 0 0 0 0 0 0 0 0 0 0 0 0 0 0 0 0 0 0 0
0 0 0 0 0 0 0 0 0 0 0 0 0 0 0 0 0 0 0 0 0 0 0 0 0 0 0 0 0 0 0 0 0 0 0 0 0 0 0 0 0 0 0 0
0 0 0 0 0 0 0 0 0 0 0 0 0 0 0 0 0 0 0 0 0 0 0 0 0 0 0 0 0 0 0 0 0 0 0 0 0 0 0 0 0 0 0 0
0 0 0 0 0 0 0 0 0 0 0 0 0 0 0 0 0 0 0 0 0 0 0 0 0 0 0 0 0 0 0 0 0 0 0 0 0 0 0 0 0 0 0 -0
0 0 0 0 0 0 0 0 0 0 0 0 0 0 0 0 0 0 0 0 0 0 0 0 0 0 0 0 0 0 0 0 0 0 0 0 0 0 0 0 0 0 -0 -0
0 0 0 0 0 0 0 0 0 0 0 0 0 0 0 0 0 0 0 0 0 0 0 0 0 0 0 0 0 0 0 0 0 0 0 0 0 0 0 0 0 0 0 -0
0 0 0 0 0 0 0 0 0 0 0 0 0 0 0 0 0 0 0 0 0 0 0 0 0 0 0 0 0 0 0 0 0 0 0 0 0 0 0 0 0 0 -0 -0
0 0 0 0 0 0 0 0 0 0 0 0 0 0 0 0 0 0 0 0 0 0 0 0 0 0 0 0 0 0 0 0 0 0 0 0 0 0 0 0 0 -0 -0 -0
0 0 0 0 0 0 0 0 0 0 0 0 0 0 0 0 0 0 0 0 0 0 0 0 0 0 0 0 0 0 0 0 0 0 0 0 0 0 0 0 0 -0 -0 0
0 0 0 0 0 0 0 0 0 0 0 0 0 0 0 0 0 0 0 0 0 0 0 0 0 0 0 0 0 0 0 0 0 0 0 0 0 0 0 0 0 -0 0 0
0 0 0 0 0 0 0 0 0 0 0 0 0 0 0 0 0 0 0 0 0 0 0 0 0 0 0 0 0 0 0 0 0 0 0 0 0 0 0 0 0 0 0 0
0 0 0 0 0 0 0 0 0 0 0 0 0 0 0 0 0 0 0 0 0 0 0 0 0 0 0 0 0 0 0 0 0 0 0 0 0 0 0 0 0 0 0 0
0 0 0 0 0 0 0 0 0 0 0 0 -0 -0 0 0 0 0 0 0 0 0 0 0 0 0 0 0 0 0 0 0 0 0 0 0 0 0 0 0 0 0 0 0
Wind_Speed_500mb
8 5 10 10 14 12 1 10 12 16 24 31 27 25 33 45 50 45 40 33 27 27 28 37 41 48 39 34 32 27 35 32 16 15 24 25 29 32 34 35 36 33 33 30
10 12 15 10 22 18 9 5 10 23 11 12 33 33 31 31 34 42 42 42 42 35 26 25 28 39 35 32 25 23 24 27 24 11 16 41 26 21 33 37 36 38 36 37
6 13 6 9 14 8 7 2 12 13 15 37 29 35 34 39 46 50 51 47 42 41 42 39 32 27 26 22 24 30 35 38 31 15 25 21 18 22 23 32 28 27 35 34
2 13 6 3 8 16 12 13 11 8 33 32 40 37 42 49 53 49 50 50 47 46 41 37 36 35 36 32 27 35 37 34 33 31 33 26 23 13 11 16 28 29 29 28
7 3 8 5 6 5 3 9 5 17 30 39 49 50 28 47 49 51 50 48 47 44 40 39 35 30 27 31 27 23 19 16 21 17 18 15 12 14 18 13 14 29 30 29
5 10 14 1 5 14 7 4 9 25 37 48 48 11 9 50 48 47 43 38 37 38 39 28 29 23 17 22 19 17 20 17 15 10 7 11 16 16 20 19 14 3 18 31
2 2 10 4 23 18 9 10 35 50 54 48 9 14 61 59 53 44 39 38 35 31 23 19 18 12 9 7 5 6 8 9 9 9 8 7 9 5 3 4 8 5 1 6
4 5 5 24 14 2 7 13 54 55 52 54 37 54 67 56 54 51 46 37 28 19 13 10 8 4 4 6 8 9 12 14 13 11 11 10 9 8 8 11 14 12 9 8
9 9 11 15 8 16 12 10 30 58 56 55 53 74 72 65 56 47 37 30 23 16 13 11 10 8 6 5 5 5 6 9 13 17 20 20 17 15 16 15 14 15 16 17
6 4 7 11 13 20 22 9 32 51 61 53 60 73 66 56 50 43 36 27 19 10 6 6 6 5 4 6 7 8 9 9 7 10 14 18 21 22 21 20 21 20 20 21
3 10 2 1 3 11 15 15 22 39 48 49 49 62 59 56 51 42 33 26 17 12 12 13 11 10 7 5 3 4 6 8 9 7 8 9 11 16 18 21 23 24 25 28
10 11 5 3 7 7 12 12 21 34 40 35 30 49 54 45 36 31 27 20 16 13 12 12 14 14 10 6 3 2 4 5 5 5 5 4 4 6 9 14 19 23 27 30
1 3 5 8 10 18 22 22 14 17 27 41 49 63 47 53 50 41 29 21 13 11 14 17 19 18 14 11 8 6 4 2 1 0 1 2 3 3 4 6 12 16 21 27
7 6 12 14 8 10 34 34 39 28 20 26 45 56 53 53 47 36 22 15 19 18 18 18 19 19 17 15 13 7 3 0 3 5 7 7 6 7 8 9 8 9 13 20
12 13 13 18 24 21 16 40 45 48 41 41 43 49 51 48 41 30 24 22 20 21 22 24 24 23 20 17 13 8 5 3 5 8 10 13 14 15 15 15 15 16 18 20
8 13 15 18 20 21 21 21 45 56 58 52 51 54 49 48 41 34 31 29 27 22 25 27 27 26 24 22 17 13 12 9 4 5 10 13 16 19 21 23 25 27 29 33
11 11 15 15 13 11 13 15 30 56 64 67 64 62 61 57 53 44 36 30 24 21 22 26 26 29 28 25 20 17 13 9 4 2 7 12 17 21 25 28 31 34 36 39
9 9 6 2 5 12 10 8 5 24 39 44 56 61 62 69 65 56 47 43 41 36 30 25 29 32 32 30 26 22 17 12 7 1 9 15 19 22 26 30 34 37 41 44
6 0 10 11 5 7 9 9 10 11 14 27 35 37 50 62 63 60 54 56 57 51 42 39 39 39 41 36 32 27 22 16 7 3 9 15 20 23 26 31 35 39 44 48
13 9 4 5 10 10 13 14 14 15 20 27 30 38 50 45 48 49 59 75 76 61 54 50 49 45 48 41 37 31 26 19 10 5 9 16 21 25 30 34 37 40 44 48
18 13 13 14 15 14 13 14 20 24 24 28 33 40 45 42 46 51 56 57 60 68 71 56 60 48 55 50 43 35 31 21 15 9 10 13 19 26 33 36 39 41 44 49
27 21 17 16 17 19 17 18 22 26 29 33 38 40 41 42 42 47 55 59 47 47 46 60 71 58 56 57 45 39 32 22 17 13 13 14 18 24 31 35 38 41 44 50
22 20 13 10 13 16 21 29 35 39 41 42 44 44 47 49 48 51 54 47 45 52 59 57 71 70 57 67 52 44 37 26 15 14 18 19 21 24 30 35 37 42 46 51
19 13 10 8 18 23 23 21 23 25 28 31 35 40 47 50 51 54 54 48 48 44 48 52 64 78 72 71 66 52 44 33 26 21 21 23 27 27 28 33 36 43 46 56
16 15 7 9 4 10 14 19 21 22 23 27 27 31 36 39 46 44 46 45 45 48 50 49 55 74 78 69 73 55 48 34 26 29 29 30 32 33 31 32 35 40 45 48
17 11 9 8 3 8 14 17 20 31 40 39 26 22 17 12 16 26 37 46 49 51 49 50 49 54 79 76 62 48 40 33 30 32 35 34 34 35 35 36 37 38 42 46
21 18 12 10 5 1 9 19 21 26 31 42 35 24 10 10 18 21 23 29 35 35 37 42 47 50 76 63 51 44 40 38 35 36 39 38 37 37 36 37 40 40 41 45
Wind_Direction_500mb
38 238 100 73 23 343 300 167 150 185 172 173 154 150 144 148 154 157 162 164 162 173 177 190 193 198 213 211 212 220 225 203 198 211 222 227 234 250 259 257 257 258 259 254
3 358 112 75 19 11 55 86 50 114 109 138 144 137 139 140 139 139 140 140 147 160 159 174 171 184 194 203 208 204 205 223 191 251 277 225 227 255 267 256 256 256 259 259
290 337 321 16 351 338 320 253 163 155 178 146 146 149 145 147 146 137 140 136 132 136 144 159 173 172 189 197 194 180 174 169 164 210 230 217 220 242 279 247 236 246 248 253
72 8 74 287 181 94 78 17 339 82 138 144 136 129 147 156 147 141 135 127 127 127 129 123 119 124 138 159 166 180 191 199 220 222 237 241 252 256 298 259 245 249 246 254
108 81 294 282 14 50 57 6 8 132 127 132 122 121 109 148 143 138 136 135 135 134 128 123 113 110 116 119 115 130 156 200 221 235 233 239 230 268 293 290 276 259 251 246
149 151 196 162 309 323 131 29 109 141 138 143 148 138 154 154 150 146 142 140 135 134 130 129 117 114 111 108 109 117 123 128 142 160 204 242 262 265 270 281 301 273 232 242
86 141 294 272 307 307 97 237 165 162 159 166 176 168 159 162 159 158 156 149 148 148 150 143 133 143 147 128 136 127 140 158 168 175 179 186 201 207 194 234 251 264 265 213
84 87 255 345 346 101 248 292 185 180 177 169 162 155 161 166 164 165 166 164 163 167 161 156 159 206 238 226 210 215 236 246 241 230 227 223 225 204 191 185 191 186 189 212
159 217 270 322 311 343 324 291 199 182 182 180 161 166 166 169 166 163 168 175 181 189 189 199 203 213 226 247 270 284 271 242 236 235 234 236 240 239 236 230 227 229 232 237
57 304 330 348 17 25 18 319 204 195 188 178 170 172 172 172 171 176 179 182 189 200 231 264 279 279 238 208 216 234 257 262 253 244 239 240 241 240 241 247 255 262 264 268
282 277 271 151 84 60 49 55 185 186 184 177 178 176 180 183 182 181 183 185 192 213 217 233 251 256 256 262 238 191 196 220 230 244 258 255 250 252 253 255 256 263 269 275
215 213 177 224 184 170 140 111 156 181 177 183 200 195 190 185 185 195 196 204 223 245 265 262 236 228 221 221 227 225 189 182 186 198 216 235 249 262 260 265 273 276 279 279
172 171 272 280 262 231 208 181 170 176 191 194 198 187 187 201 201 204 207 215 238 259 250 242 237 236 234 230 227 233 239 239 277 94 158 238 264 242 224 277 270 279 281 285
216 254 284 272 301 313 218 209 199 192 192 200 191 194 193 196 194 204 225 257 257 251 245 238 228 219 212 206 206 216 233 53 47 50 40 26 11 357 340 322 304 301 296 287
213 221 255 275 278 282 278 226 218 207 197 192 199 201 199 202 208 223 220 231 232 233 233 229 217 212 203 195 190 189 176 130 76 55 44 34 25 15 7 357 348 336 328 319
218 244 254 269 274 277 281 261 225 215 208 201 201 204 208 213 215 213 211 216 220 233 225 214 212 210 202 194 184 178 167 152 116 47 27 16 9 5 2 0 357 352 349 344
274 288 282 267 251 271 287 280 240 221 213 207 205 206 207 216 215 211 216 220 217 229 225 220 219 208 201 196 191 187 182 176 167 43 8 0 360 360 359 357 356 355 354 350
264 268 224 282 288 261 284 297 245 216 215 223 224 218 220 220 218 217 219 222 214 217 222 222 217 211 206 203 200 199 198 195 181 15 0 1 360 -0 359 360 358 356 354 351
219 319 217 227 267 296 289 292 260 232 238 247 220 227 236 237 238 235 231 236 225 225 225 219 217 215 210 208 205 204 204 199 205 321 352 1 2 1 1 1 359 357 354 351
212 217 214 211 240 276 284 277 267 254 251 245 251 240 241 253 246 245 245 239 236 237 238 227 218 220 208 209 208 208 208 208 228 290 338 357 4 3 360 357 356 353 350 348
224 230 241 241 246 250 259 261 262 261 265 263 257 251 252 260 252 247 242 245 243 231 241 238 225 237 213 212 208 209 209 218 225 265 314 341 356 360 357 356 355 350 345 342
237 235 244 252 254 256 257 264 266 265 263 260 259 262 260 258 256 248 248 253 253 244 236 246 230 228 223 214 212 211 210 215 228 255 287 312 333 346 350 349 346 345 344 341
219 213 212 239 263 276 288 289 287 283 278 273 269 264 259 257 254 254 251 253 251 254 255 248 231 224 211 218 216 212 213 221 234 265 280 298 312 332 340 342 345 344 344 344
182 198 246 272 311 319 321 314 302 294 291 287 280 273 266 260 254 252 251 249 248 249 254 257 235 218 207 213 217 216 219 229 243 264 277 291 297 306 321 332 334 342 345 346
195 194 215 300 348 55 29 24 29 21 354 333 312 281 274 268 262 259 254 251 250 252 250 251 247 226 211 211 219 218 225 229 252 265 276 282 288 292 297 310 324 332 333 335
188 212 239 185 122 28 33 29 16 3 3 360 344 316 307 297 277 270 261 255 253 250 247 243 241 233 222 204 212 190 209 225 248 266 271 278 283 285 290 291 302 318 329 329
208 224 228 222 264 215 21 20 15 18 30 26 18 350 323 316 309 298 279 271 248 239 239 232 229 236 208 188 176 200 225 236 252 265 272 274 277 280 284 288 288 298 316 322
Wind_Speed_850mb
8 5 10 10 14 12 1 10 12 16 24 31 27 25 33 45 50 45 40 33 27 27 28 37 41 48 39 34 32 27 35 32 16 15 24 25 29 32 34 35 36 33 33 30
10 12 15 10 22 18 9 5 10 23 11 12 33 33 31 31 34 42 42 42 42 35 26 25 28 39 35 32 25 23 24 27 24 11 16 41 26 21 33 37 36 38 36 37
6 13 6 9 14 8 7 2 12 13 15 37 29 35 34 39 46 50 51 47 42 41 42 39 32 27 26 22 24 30 35 38 31 15 25 21 18 22 23 32 28 27 35 34
2 13 6 3 8 16 12 13 11 8 33 32 40 37 42 49 53 49 50 50 47 46 41 37 36 35 36 32 27 35 37 34 33 31 33 26 23 13 11 16 28 29 29 28
7 3 8 5 6 5 3 9 5 17 30 39 49 50 28 47 49 51 50 48 47 44 40 39 35 30 27 31 27 23 19 16 21 17 18 15 12 14 18 13 14 29 30 29
5 10 14 1 5 14 7 4 9 25 37 48 48 11 9 50 48 47 43 38 37 38 39 28 29 23 17 22 19 17 20 17 15 10 7 11 16 16 20 19 14 3 18 31
2 2 10 4 23 18 9 10 35 50 54 48 9 14 61 59 53 44 39 38 35 31 23 19 18 12 9 7 5 6 8 9 9 9 8 7 9 5 3 4 8 5 1 6
4 5 5 24 14 2 7 13 54 55 52 54 37 54 67 56 54 51 46 37 28 19 13 10 8 4 4 6 8 9 12 14 13 11 11 10 9 8 8 11 14 12 9 8
9 9 11 15 8 16 12 10 30 58 56 55 53 74 72 65 56 47 37 30 23 16 13 11 10 8 6 5 5 5 6 9 13 17 20 20 17 15 16 15 14 15 16 17
6 4 7 11 13 20 22 9 32 51 61 53 60 73 66 56 50 43 36 27 19 10 6 6 6 5 4 6 7 8 9 9 7 10 14 18 21 22 21 20 21 20 20 21
3 10 2 1 3 11 15 15 22 39 48 49 49 62 59 56 51 42 33 26 17 12 12 13 11 10 7 5 3 4 6 8 9 7 8 9 11 16 18 21 23 24 25 28
10 11 5 3 7 7 12 12 21 34 40 35 30 49 54 45 36 31 27 20 16 13 12 12 14 14 10 6 3 2 4 5 5 5 5 4 4 6 9 14 19 23 27 30
1 3 5 8 10 18 22 22 14 17 27 41 49 63 47 53 50 41 29 21 13 11 14 17 19 18 14 11 8 6 4 2 1 0 1 2 3 3 4 6 12 16 21 27
7 6 12 14 8 10 34 34 39 28 20 26 45 56 53 53 47 36 22 15 19 18 18 18 19 19 17 15 13 7 3 0 3 5 7 7 6 7 8 9 8 9 13 20
12 13 13 18 24 21 16 40 45 48 41 41 43 49 51 48 41 30 24 22 20 21 22 24 24 23 20 17 13 8 5 3 5 8 10 13 14 15 15 15 15 16 18 20
8 13 15 18 20 21 21 21 45 56 58 52 51 54 49 48 41 34 31 29 27 22 25 27 27 26 24 22 17 13 12 9 4 5 10 13 16 19 21 23 25 27 29 33
11 11 15 15 13 11 13 15 30 56 64 67 64 62 61 57 53 44 36 30 24 21 22 26 26 29 28 25 20 17 13 9 4 2 7 12 17 21 25 28 31 34 36 39
9 9 6 2 5 12 10 8 5 24 39 44 56 61 62 69 65 56 47 43 41 36 30 25 29 32 32 30 26 22 17 12 7 1 9 15 19 22 26 30 34 37 41 44
6 0 10 11 5 7 9 9 10 11 14 27 35 37 50 62 63 60 54 56 57 51 42 39 39 39 41 36 32 27 22 16 7 3 9 15 20 23 26 31 35 39 44 48
13 9 4 5 10 10 13 14 14 15 20 27 30 38 50 45 48 49 59 75 76 61 54 50 49 45 48 41 37 31 26 19 10 5 9 16 21 25 30 34 37 40 44 48
18 13 13 14 15 14 13 14 20 24 24 28 33 40 45 42 46 51 56 57 60 68 71 56 60 48 55 50 43 35 31 21 15 9 10 13 19 26 33 36 39 41 44 49
27 21 17 16 17 19 17 18 22 26 29 33 38 40 41 42 42 47 55 59 47 47 46 60 71 58 56 57 45 39 32 22 17 13 13 14 18 24 31 35 38 41 44 50
22 20 13 10 13 16 21 29 35 39 41 42 44 44 47 49 48 51 54 47 45 52 59 57 71 70 57 67 52 44 37 26 15 14 18 19 21 24 30 35 37 42 46 51
19 13 10 8 18 23 23 21 23 25 28 31 35 40 47 50 51 54 54 48 48 44 48 52 64 78 72 71 66 52 44 33 26 21 21 23 27 27 28 33 36 43 46 56
16 15 7 9 4 10 14 19 21 22 23 27 27 31 36 39 46 44 46 45 45 48 50 49 55 74 78 69 73 55 48 34 26 29 29 30 32 33 31 32 35 40 45 48
17 11 9 8 3 8 14 17 20 31 40 39 26 22 17 12 16 26 37 46 49 51 49 50 49 54 79 76 62 48 40 33 30 32 35 34 34 35 35 36 37 38 42 46
21 18 12 10 5 1 9 19 21 26 31 42 35 24 10 10 18 21 23 29 35 35 37 42 47 50 76 63 51 44 40 38 35 36 39 38 37 37 36 37 40 40 41 45
Wind_Direction_850mb
38 238 100 73 23 343 300 167 150 185 172 173 154 150 144 148 154 157 162 164 162 173 177 190 193 198 213 211 212 220 225 203 198 211 222 227 234 250 259 257 257 258 259 254
3 358 112 75 19 11 55 86 50 114 109 138 144 137 139 140 139 139 140 140 147 160 159 174 171 184 194 203 208 204 205 223 191 251 277 225 227 255 267 256 256 256 259 259
290 337 321 16 351 338 320 253 163 155 178 146 146 149 145 147 146 137 140 136 132 136 144 159 173 172 189 197 194 180 174 169 164 210 230 217 220 242 279 247 236 246 248 253
72 8 74 287 181 94 78 17 339 82 138 144 136 129 147 156 147 141 135 127 127 127 129 123 119 124 138 159 166 180 191 199 220 222 237 241 252 256 298 259 245 249 246 254
108 81 294 282 14 50 57 6 8 132 127 132 122 121 109 148 143 138 136 135 135 134 128 123 113 110 116 119 115 130 156 200 221 235 233 239 230 268 293 290 276 259 251 246
149 151 196 162 309 323 131 29 109 141 138 143 148 138 154 154 150 146 142 140 135 134 130 129 117 114 111 108 109 117 123 128 142 160 204 242 262 265 270 281 301 273 232 242
86 141 294 272 307 307 97 237 165 162 159 166 176 168 159 162 159 158 156 149 148 148 150 143 133 143 147 128 136 127 140 158 168 175 179 186 201 207 194 234 251 264 265 213
84 87 255 345 346 101 248 292 185 180 177 169 162 155 161 166 164 165 166 164 163 167 161 156 159 206 238 226 210 215 236 246 241 230 227 223 225 204 191 185 191 186 189 212
159 217 270 322 311 343 324 291 199 182 182 180 161 166 166 169 166 163 168 175 181 189 189 199 203 213 226 247 270 284 271 242 236 235 234 236 240 239 236 230 227 229 232 237
57 304 330 348 17 25 18 319 204 195 188 178 170 172 172 172 171 176 179 182 189 200 231 264 279 279 238 208 216 234 257 262 253 244 239 240 241 240 241 247 255 262 264 268
282 277 271 151 84 60 49 55 185 186 184 177 178 176 180 183 182 181 183 185 192 213 217 233 251 256 256 262 238 191 196 220 230 244 258 255 250 252 253 255 256 263 269 275
215 213 177 224 184 170 140 111 156 181 177 183 200 195 190 185 185 195 196 204 223 245 265 262 236 228 221 221 227 225 189 182 186 198 216 235 249 262 260 265 273 276 279 279
172 171 272 280 262 231 208 181 170 176 191 194 198 187 187 201 201 204 207 215 238 259 250 242 237 236 234 230 227 233 239 239 277 94 158 238 264 242 224 277 270 279 281 285
216 254 284 272 301 313 218 209 199 192 192 200 191 194 193 196 194 204 225 257 257 251 245 238 228 219 212 206 206 216 233 53 47 50 40 26 11 357 340 322 304 301 296 287
213 221 255 275 278 282 278 226 218 207 197 192 199 201 199 202 208 223 220 231 232 233 233 229 217 212 203 195 190 189 176 130 76 55 44 34 25 15 7 357 348 336 328 319
218 244 254 269 274 277 281 261 225 215 208 201 201 204 208 213 215 213 211 216 220 233 225 214 212 210 202 194 184 178 167 152 116 47 27 16 9 5 2 0 357 352 349 344
274 288 282 267 251 271 287 280 240 221 213 207 205 206 207 216 215 211 216 220 217 229 225 220 219 208 201 196 191 187 182 176 167 43 8 0 360 360 359 357 356 355 354 350
264 268 224 282 288 261 284 297 245 216 215 223 224 218 220 220 218 217 219 222 214 217 222 222 217 211 206 203 200 199 198 195 181 15 0 1 360 -0 359 360 358 356 354 351
219 319 217 227 267 296 289 292 260 232 238 247 220 227 236 237 238 235 231 236 225 225 225 219 217 215 210 208 205 204 204 199 205 321 352 1 2 1 1 1 359 357 354 351
212 217 214 211 240 276 284 277 267 254 251 245 251 240 241 253 246 245 245 239 236 237 238 227 218 220 208 209 208 208 208 208 228 290 338 357 4 3 360 357 356 353 350 348
224 230 241 241 246 250 259 261 262 261 265 263 257 251 252 260 252 247 242 245 243 231 241 238 225 237 213 212 208 209 209 218 225 265 314 341 356 360 357 356 355 350 345 342
237 235 244 252 254 256 257 264 266 265 263 260 259 262 260 258 256 248 248 253 253 244 236 246 230 228 223 214 212 211 210 215 228 255 287 312 333 346 350 349 346 345 344 341
219 213 212 239 263 276 288 289 287 283 278 273 269 264 259 257 254 254 251 253 251 254 255 248 231 224 211 218 216 212 213 221 234 265 280 298 312 332 340 342 345 344 344 344
182 198 246 272 311 319 321 314 302 294 291 287 280 273 266 260 254 252 251 249 248 249 254 257 235 218 207 213 217 216 219 229 243 264 277 291 297 306 321 332 334 342 345 346
195 194 215 300 348 55 29 24 29 21 354 333 312 281 274 268 262 259 254 251 250 252 250 251 247 226 211 211 219 218 225 229 252 265 276 282 288 292 297 310 324 332 333 335
188 212 239 185 122 28 33 29 16 3 3 360 344 316 307 297 277 270 261 255 253 250 247 243 241 233 222 204 212 190 209 225 248 266 271 278 283 285 290 291 302 318 329 329
208 224 228 222 264 215 21 20 15 18 30 26 18 350 323 316 309 298 279 271 248 239 239 232 229 236 208 188 176 200 225 236 252 265 272 274 277 280 284 288 288 298 316 322